Other Public Products
Issued by NWS Grand Forks, ND

Home | Current Version | Previous Version | Text Only | Print | Product List | Glossary On
Versions: 1 2 3 4 5 6 7 8 9 10 11 12 13 14 15 16 17 18 19 20 21 22 23 24 25 26 27 28 29 30 31 32 33 34 35 36 37 38 39 40 41 42 43 44 45 46 47 48 49 50
000
FPUS83 KFGF 190031
OPUFGF
PRAIRIE TO PINES WEATHER ROUNDUP
NATIONAL WEATHER SERVICE EASTERN NORTH DAKOTA/GRAND FORKS ND
700 PM CDT THU SEP 18 2014

 **SATELLITE DATA USED TO AUGMENT SKY COVER AT AUTOMATED STATIONS**
 *****  WEATHER ACROSS EASTERN NORTH DAKOTA  *****

CITY           SKY/WX    TMP DP  RH WIND       PRES   REMARKS
GRAND FORKS    MOCLDY    71  58  63 S13       29.75S
6HR MIN TEMP:  59; 6HR MAX TEMP:  74;

GRAND FORKS AF MOCLDY    70  60  72 SE14      29.73F
GRAND CITY NWS   N/A     70 N/A N/A S20         N/A
BUXTON           N/A     71  63  77 S10         N/A
DEVILS LAKE    CLOUDY    73  59  60 S18       29.66S
6HR MIN TEMP:  72; 6HR MAX TEMP:  75;

FARGO          PTCLDY    75  59  57 S13G23    29.79F
6HR MIN TEMP:  65; 6HR MAX TEMP:  76;

WAHPETON ARPT  MOCLDY    72  54  53 S15G21    29.82F
$$

 *****  WEATHER ACROSS CENTRAL AND WESTERN NORTH DAKOTA  *****

CITY           SKY/WX    TMP DP  RH WIND       PRES   REMARKS
JAMESTOWN      MOCLDY    73  61  65 S15G22    29.72F
6HR MIN TEMP:  72; 6HR MAX TEMP:  78;

BISMARCK       CLOUDY    76  63  64 S10       29.69F
6HR MIN TEMP:  76; 6HR MAX TEMP:  83;

MINOT          CLOUDY    76  62  62 S15       29.59F
6HR MIN TEMP:  73; 6HR MAX TEMP:  80;

MINOT AFB      CLOUDY    76  64  67 SW17      29.57F
6HR MIN TEMP:  72; 6HR MAX TEMP:  79;

GARRISON         N/A     74  65  73 S10       29.64F
6HR MIN TEMP:  72; 6HR MAX TEMP:  78;

WILLISTON      CLOUDY    77  52  41 SW9       29.59S
6HR MIN TEMP:  76; 6HR MAX TEMP:  83;

DICKINSON      LGT RAIN  71  61  70 CALM      29.68F
6HR MIN TEMP:  71; 6HR MAX TEMP:  79; 6HR PCP: TRACE;

HETTINGER      CLOUDY    75  62  64 SE5       29.75R
6HR MIN TEMP:  74; 6HR MAX TEMP:  79;

$$

 *****  OTHER OBSERVATIONS NORTHEAST NORTH DAKOTA  *****

CITY           SKY/WX    TMP DP  RH WIND       PRES   REMARKS
WALHALLA         N/A     66  59  77 S16G26    29.66S
LANGDON        FAIR      66  55  68 S17       29.68F
CAVALIER       FAIR      66  57  72 S16       29.68F
GRAFTON        FAIR      68  57  68 S16       29.72S
CANDO          FAIR      68  61  77 SE10      29.65F
FORT TOTTEN    NOT AVBL
ROLLA          FAIR      72  61  68 S14G21    29.63F
RUGBY          FAIR      73  61  64 S13G20    29.62S
 ***** THE ABOVE OBSERVATIONS ARE NON NWS ARE NOT QUALITY
        CONTROLLED AND MAY MIS-REPORT RAIN FOR SNOW...
$$

 *****  OTHER OBSERVATIONS SOUTHEAST NORTH DAKOTA *****

CITY           SKY/WX    TMP DP  RH WIND       PRES   REMARKS
COOPERSTOWN    NOT AVBL
VALLEY CITY    FAIR      72  66  83 S10       29.75F
OAKES            N/A     72  63  73 S13       29.77F
GWINNER        CLEAR     72  61  68 S13       29.80F
BUFFALO          N/A     70  59  68 S10         N/A
WYNDMERE         N/A    N/A N/A N/A S6          N/A
 ***** THE ABOVE OBSERVATIONS ARE NON NWS ARE NOT QUALITY
       CONTROLLED AND MAY MIS-REPORT RAIN FOR SNOW...
$$

  *****  WEATHER ACROSS NORTHERN MINNESOTA  *****

CITY           SKY/WX    TMP DP  RH WIND       PRES   REMARKS
FLAG ISLAND    CLEAR     59  52  77 SE9       29.81S
WARROAD        PTCLDY    63  55  77 SE9G16    29.82S
ROSEAU         MOCLDY    64  54  68 SE10      29.79F
HALLOCK        LGT RAIN  70  57  64 S20       29.71F
THF RVR FALLS  MOCLDY    66  55  68 S12       29.80S
6HR MIN TEMP:  64; 6HR MAX TEMP:  73;

HALSTAD          N/A     71  54  54 S14         N/A
FOSSTON        MOCLDY    64  54  68 SE13      29.84S
BAUDETTE       CLEAR     62  52  69 SE8       29.84F
6HR MIN TEMP:  48; 6HR MAX TEMP:  65;

WASKISH        CLEAR     61  54  77 SE6G16    29.87F
CROOKSTON      MOCLDY    70  57  64 S16       29.78F
$$
  *****  WEATHER ACROSS CENTRAL AND WEST MINNESOTA  *****

CITY           SKY/WX    TMP DP  RH WIND       PRES   REMARKS
BEMIDJI        MOCLDY    59  53  78 SE12      29.88F
PARK RAPIDS    PTCLDY    64  55  72 SE14      29.90F
6HR MIN TEMP:  59; 6HR MAX TEMP:  68;

WADENA         PTCLDY    64  55  72 SE8       29.90F
DETROIT LAKES  MOCLDY    66  57  72 SE12      29.86F
MOORHEAD       PTCLDY    73  59  60 S12G17    29.81S
FERGUS FALLS   PTCLDY    70  54  56 S10       29.85S
ELBOW LAKE     FAIR      68  56  66 SE10      29.87S
6HR MIN TEMP:  61; 6HR MAX TEMP:  74;

MORRIS MN      PTCLDY    70  55  60 SE12      29.88F
STAPLES        CLEAR     63  55  77 SE6       29.92F
WHEATON        PTCLDY    68  55  64 SE9       29.87R
$$
  *****  WEATHER ELSEWHERE ACROSS MINNESOTA  *****

CITY           SKY/WX    TMP DP  RH WIND       PRES   REMARKS
DULUTH         CLOUDY    46  42  86 E13       30.04F
6HR MIN TEMP:  46; 6HR MAX TEMP:  49;

INTRNTL FALLS  PTCLDY    58  50  75 SE9       29.91F
6HR MIN TEMP:  51; 6HR MAX TEMP:  63;

ELY            MOCLDY    46  41  81 S9        30.02S
CLOQUET        MOCLDY    46  45  93 E6        30.03S
BRAINERD       CLEAR     59  54  83 CALM      29.97S
6HR MIN TEMP:  51; 6HR MAX TEMP:  62;

HIBBING        CLOUDY    51  45  79 SE12      30.01S
6HR MIN TEMP:  51; 6HR MAX TEMP:  61;

ALEXANDRIA     CLEAR     69  56  62 S10       29.93F
6HR MIN TEMP:  58; 6HR MAX TEMP:  73;

SAINT CLOUD    CLEAR     69  55  60 SE7       29.96S
6HR MIN TEMP:  63; 6HR MAX TEMP:  75;

MINNEAPOLIS    PTCLDY    70  52  52 SE8       29.98S
6HR MIN TEMP:  65; 6HR MAX TEMP:  75;

$$

  *****  WEATHER ACROSS SOUTH DAKOTA  *****

CITY           SKY/WX    TMP DP  RH WIND       PRES   REMARKS
SIOUX FALLS    PTCLDY    71  55  56 S10G22    29.91F
6HR MIN TEMP:  71; 6HR MAX TEMP:  77;

BROOKINGS      NOT AVBL
WATERTOWN      MOCLDY    70  56  61 S13       29.88S
6HR MIN TEMP:  70; 6HR MAX TEMP:  76;

HURON          PTCLDY    72  56  57 S10G20    29.84R
6HR MIN TEMP:  72; 6HR MAX TEMP:  77;

SISSETON         N/A     72  58  61 S12       29.83F
ABERDEEN       PTCLDY    73  61  65 S13       29.79F
6HR MIN TEMP:  73; 6HR MAX TEMP:  80;

MITCHELL       CLEAR     72  58  61 SE14      29.85F
PIERRE         MOCLDY    79  63  57 S13       29.72F
6HR MIN TEMP:  78; 6HR MAX TEMP:  85;

MOBRIDGE       CLOUDY    77  62  59 S10       29.70F
RAPID CITY     MOCLDY    85  53  33 SE14      29.72F
6HR MIN TEMP:  79; 6HR MAX TEMP:  92;

$$

  *****  SOME WEATHER IN NEARBY STATES *****

CITY           SKY/WX    TMP DP  RH WIND       PRES   REMARKS
GLASGOW MT     PTSUNNY   76  54  46 W3        29.60S
6HR MIN TEMP:  70; 6HR MAX TEMP:  82;

GREAT FALLS MT SUNNY     76  46  34 SW15G24   29.69R
6HR MIN TEMP:  71; 6HR MAX TEMP:  78;

CHEYENNE WY    SUNNY     82  29  14 S12       29.99F
6HR MIN TEMP:  82; 6HR MAX TEMP:  87;

SCOTTSBLUFF NE SUNNY     87  52  29 E10       29.82F
6HR MIN TEMP:  76; 6HR MAX TEMP:  93;

OMAHA NE       PTCLDY    71  53  52 SE12      29.96S
6HR MIN TEMP:  71; 6HR MAX TEMP:  77;

DES MOINES IA  PTCLDY    69  52  54 S7        30.02R
6HR MIN TEMP:  69; 6HR MAX TEMP:  74;

DAVENPORT IA   CLEAR     65  50  58 E6        30.08R
6HR MIN TEMP:  65; 6HR MAX TEMP:  74;

CHICAGO IL     PTCLDY    62  54  74 NE12      30.12S
6HR MIN TEMP:  62; 6HR MAX TEMP:  70;

EAU CLAIRE WI  NOT AVBL
LA CROSSE WI   CLEAR     66  55  67 SE8       30.06R
6HR MIN TEMP:  64; 6HR MAX TEMP:  72;

$$

  *****  SOME NATIONAL WEATHER *****

CITY           SKY/WX    TMP DP  RH WIND       PRES   REMARKS
LA GUARDIA NY  PTCLDY    71  48  43 NE6       30.01R
6HR MIN TEMP:  71; 6HR MAX TEMP:  75;



USA.gov is the U.S. government's official web portal to all federal, state and local government web resources and services.